Home > Time Zones > World Clock > Weather > Iran > Kerman > Past weeks

Flag for Iran Weather past 2 weeks in Kerman, Iran

Now
39 °F

Passing clouds.


Feels Like: 34 °F
Forecast: 26 / 56 °F
Wind: 7 mph from North

Location: Kerman Airport

Current Time: Dec 22, 2014 at 9:01:20 PM

Latest Report: Dec 22, 2014 at 8:30 PM


Visibility: N/A

Pressure: 30.09 "Hg

Humidity: 75%

Dew point: 32 °F

Location of KermanLocation

Historic Weather in Kerman — Graph

°F

Kerman temperature yesterday

Maximum temperature yesterday: 63 °F (at 12:30 PM)
Minimum temperature yesterday: 34 °F (at 7:30 AM)
Average temperature yesterday: 50 °F

Past Weeks' High & Low Weather Summary

 TemperatureHumidityPressure
High72 °F (Dec 15, 12:30 PM)100% (Dec 18, 2:30 AM)30.48 "Hg (Dec 18, 2:30 AM)
Low18 °F (Dec 16, 7:00 AM)0% (Dec 15, 4:30 PM)29.95 "Hg (Dec 21, 1:30 PM)
Average44 °F34%30.26 "Hg
* Reported Dec 7 7:30 PM — Dec 22 7:30 PM, Kerman, Weather by CustomWeather, © 2014

Note: Actual official high and low records may vary slightly from our data, if they occured in-between our weather recording intervals... More about our weather records

Advertising

Kerman weather history for previous 24 hours

 ConditionsComfort  
Time TempWeatherWind HumidityBarometerVisibility
7:30 PM
Dec 22
39 °FPassing clouds.7 mph70%30.09 "HgN/A
6:30 PM41 °FPassing clouds.7 mph70%30.07 "HgN/A
5:30 PM43 °FPassing clouds.7 mph66%30.07 "HgN/A
4:30 PM46 °FScattered clouds.9 mph57%30.04 "HgN/A
4:00 PM46 °FScattered clouds.9 mph57%30.04 "HgN/A
3:30 PM46 °FPartly sunny.7 mph53%30.04 "HgN/A
2:30 PM46 °FPartly sunny.7 mph53%30.04 "HgN/A
2:00 PM46 °FPartly sunny.9 mph57%30.01 "Hg6 mi
1:30 PM48 °FScattered clouds.7 mph58%30.04 "Hg6 mi
12:30 PM45 °FBroken clouds.9 mph66%30.04 "Hg4 mi
11:30 AM41 °FBroken clouds.12 mph81%30.07 "Hg2 mi
11:00 AM45 °FBroken clouds.12 mph66%30.07 "Hg3 mi
10:30 AM46 °FBroken clouds.7 mph62%30.09 "Hg4 mi
9:30 AM41 °FBroken clouds.7 mph76%30.09 "Hg3 mi
8:30 AM39 °FFog.7 mph81%30.09 "Hg3 mi
8:00 AM37 °FFog.7 mph81%30.07 "Hg3 mi
6:30 AM37 °FPartly cloudy.5 mph81%30.07 "Hg4 mi
5:30 AM37 °FPassing clouds.9 mph81%30.04 "HgN/A
4:30 AM37 °FPassing clouds.12 mph81%30.04 "HgN/A
3:30 AM37 °FPassing clouds.12 mph81%30.04 "HgN/A
2:30 AM39 °FPassing clouds.14 mph75%30.04 "HgN/A
1:30 AM39 °FPassing clouds.14 mph75%30.01 "HgN/A
12:30 AM45 °FPassing clouds.16 mph66%30.01 "HgN/A
11:30 PM
Dec 21
46 °FPassing clouds.7 mph57%30.01 "HgN/A
10:30 PM52 °FPassing clouds.16 mph44%30.01 "HgN/A
9:30 PM55 °FPassing clouds.9 mph36%30.01 "HgN/A
Weather by CustomWeather, © 2014

See weather overviewHow to use our weather pages